Вернуться в каталог

XINGCHI-1 02B

АктивенНаукаSSO
NORAD 58498·PAYLOAD·🇨🇳 China

Запущен Dec 4, 2023 с Jiuquan Satellite Launch Center

Loading…

Ближайшие Пролёты (ближайшие 24 часа)

TLE

СвежийSource: Space-Track

Эпоха: Sep 14, 2026, 13:50 UTC

1 58498U 23187C   26257.57694905  .00001063  00000-0  12780-3 0  9993
2 58498  97.9256 341.3435 0010024 200.9830 159.0975 14.86021158150453

Отслеживайте XINGCHI-1 02B в реальном времени с AllMySat

Download on the App Store